Location: Unspecified
(50.0000°N, 15.0000°E)
Time: 01:51:12
(UTC+01:00)

X-37B - Pass Details

Date: 07 December 2021
Orbit: 334 x 337 km, 45.0° (Epoch: 11 January)

Event Time Altitude Azimuth Distance (km) Brightness Sun altitude
Rises 18:15:12 0° 218° (SW) 2,095 5.1 -20.9°
Reaches altitude 10° 18:17:48 10° 191° (SSW) 1,262 3.4 -21.3°
Enters shadow 18:18:04 11° 187° (S) 1,204 3.3 -21.3°
